Location: Balaclava NSW 2575, Australia
(34.4510°S, 150.4953°E)
Time: 00:21:02
(UTC+10:00)

Vanguard 1 - Visible Passes

Search period start: 23 June 2021 00:00
Search period end: 03 July 2021 00:00
Orbit: 650 x 3833 km, 34.2° (Epoch: 21 June)

Date Brightness Start Highest point End Pass type
(mag) Time Alt. Az. Time Alt. Az. Time Alt. Az.
23 Jun 14.5 17:01:53 10° WNW 17:11:00 19° NW 17:23:07 10° N visible
24 Jun 14.7 17:26:21 10° WNW 17:32:29 13° NW 17:39:42 10° NNW visible
25 Jun 12.2 06:04:40 10° N 06:06:21 12° NNE 06:07:58 10° NE visible
26 Jun 11.9 06:23:43 10° NNW 06:27:07 19° NNE 06:30:21 10° ENE visible
29 Jun 12.0 05:06:16 10° N 05:09:41 16° NNE 05:12:36 10° ENE visible
30 Jun 11.5 05:25:59 10° NNW 05:30:36 24° NNE 05:34:19 10° ENE visible
01 Jul 10.9 05:46:17 10° NW 05:51:29 34° NNE 05:55:35 10° E visible
02 Jul 12.3 03:50:45 14° NNE 03:51:58 15° NNE 03:55:15 10° ENE visible
02 Jul 10.3 06:06:58 10° NW 06:12:21 48° NNE 06:16:39 10° E visible
